When you browse on this site, cookies collect data to enhance your experience and personalize the content and advertising you see.
Visit our Privacy Policy to learn more. By continuing to use the site, you agree to this use of cookies and data.
  • In Spain
  • List of Countries
  • For 7 days
  • Water Temperature
  • Satellite Maps
  • Weather Map
  • Weather Widgets
  • user-avatar
    Login

    Hourly Weather Dammam

    Today, 22 April, Monday

    Time Temperature Precipitation Wind Pressure Humidity
    00:00 +27°C° 0 mm 3 mps 753 mmHg 52%
    01:00 +26°C° 0 mm 2 mps 752 mmHg 52%
    02:00 +26°C° 0 mm 2 mps 752 mmHg 53%
    03:00 +26°C° 0 mm 1 mps 752 mmHg 55%
    04:00 +26°C° 0 mm 1 mps 752 mmHg 54%
    05:00 +26°C° 0 mm 1 mps 752 mmHg 53%
    06:00 +26°C° 0 mm 1 mps 753 mmHg 52%
    07:00 +28°C° 0 mm 2 mps 753 mmHg 46%
    08:00 +29°C° 0 mm 4 mps 754 mmHg 40%
    09:00 +31°C° 0 mm 9 mps 755 mmHg 32%
    10:00 +31°C° 0 mm 10 mps 755 mmHg 31%
    11:00 +31°C° 0 mm 11 mps 755 mmHg 30%
    12:00 +31°C° 0 mm 12 mps 756 mmHg 29%
    13:00 +29°C° 0 mm 12 mps 756 mmHg 31%
    14:00 +28°C° 0 mm 12 mps 756 mmHg 33%
    15:00 +27°C° 0 mm 12 mps 756 mmHg 35%
    16:00 +26°C° 0 mm 11 mps 757 mmHg 35%
    17:00 +26°C° 0 mm 10 mps 757 mmHg 35%
    18:00 +24°C° 0 mm 9 mps 757 mmHg 36%
    19:00 +24°C° 0 mm 9 mps 757 mmHg 36%
    20:00 +24°C° 0 mm 9 mps 757 mmHg 35%
    21:00 +24°C° 0 mm 9 mps 758 mmHg 35%
    22:00 +23°C° 0 mm 9 mps 758 mmHg 34%
    23:00 +23°C° 0 mm 10 mps 758 mmHg 34%

    Tomorrow, 23 April, Tuesday

    Time Temperature Precipitation Wind Pressure Humidity
    00:00 +23°C° 0 mm 10 mps 758 mmHg 33%
    01:00 +23°C° 0 mm 11 mps 758 mmHg 34%
    02:00 +23°C° 0 mm 11 mps 759 mmHg 35%
    03:00 +22°C° 0 mm 11 mps 759 mmHg 35%
    04:00 +22°C° 0 mm 11 mps 759 mmHg 36%
    05:00 +22°C° 0 mm 10 mps 759 mmHg 36%
    06:00 +22°C° 0 mm 9 mps 760 mmHg 37%
    07:00 +23°C° 0 mm 10 mps 760 mmHg 33%
    08:00 +24°C° 0 mm 10 mps 761 mmHg 29%
    09:00 +26°C° 0 mm 10 mps 761 mmHg 25%
    10:00 +27°C° 0 mm 10 mps 761 mmHg 24%
    11:00 +27°C° 0 mm 10 mps 761 mmHg 23%
    12:00 +28°C° 0 mm 10 mps 761 mmHg 22%
    13:00 +28°C° 0 mm 10 mps 761 mmHg 23%
    14:00 +27°C° 0 mm 11 mps 761 mmHg 23%
    15:00 +27°C° 0 mm 11 mps 760 mmHg 24%
    16:00 +26°C° 0 mm 10 mps 760 mmHg 25%
    17:00 +26°C° 0 mm 10 mps 760 mmHg 26%
    18:00 +24°C° 0 mm 10 mps 761 mmHg 28%
    19:00 +24°C° 0 mm 8 mps 761 mmHg 29%
    20:00 +24°C° 0 mm 7 mps 761 mmHg 30%
    21:00 +24°C° 0 mm 6 mps 761 mmHg 31%
    22:00 +23°C° 0 mm 5 mps 761 mmHg 31%
    23:00 +23°C° 0 mm 5 mps 761 mmHg 32%

    Day after tomorrow, 24 April, Wednesday

    Time Temperature Precipitation Wind Pressure Humidity
    00:00 +23°C° 0 mm 4 mps 761 mmHg 33%
    01:00 +22°C° 0 mm 4 mps 761 mmHg 32%
    02:00 +22°C° 0 mm 5 mps 761 mmHg 31%
    03:00 +22°C° 0 mm 5 mps 761 mmHg 30%
    04:00 +22°C° 0 mm 6 mps 761 mmHg 30%
    05:00 +22°C° 0 mm 6 mps 761 mmHg 30%
    06:00 +22°C° 0 mm 6 mps 761 mmHg 30%
    07:00 +23°C° 0 mm 7 mps 762 mmHg 28%
    08:00 +24°C° 0 mm 8 mps 762 mmHg 27%
    09:00 +27°C° 0 mm 8 mps 762 mmHg 25%
    10:00 +28°C° 0 mm 9 mps 762 mmHg 24%
    11:00 +28°C° 0 mm 9 mps 762 mmHg 23%
    12:00 +29°C° 0 mm 9 mps 762 mmHg 22%
    13:00 +29°C° 0 mm 9 mps 762 mmHg 22%
    14:00 +29°C° 0 mm 10 mps 761 mmHg 22%
    15:00 +29°C° 0 mm 10 mps 761 mmHg 22%
    16:00 +28°C° 0 mm 9 mps 760 mmHg 24%
    17:00 +27°C° 0 mm 9 mps 760 mmHg 27%
    18:00 +26°C° 0 mm 9 mps 760 mmHg 29%
    19:00 +26°C° 0 mm 8 mps 761 mmHg 30%
    20:00 +26°C° 0 mm 7 mps 761 mmHg 30%
    21:00 +26°C° 0 mm 7 mps 761 mmHg 31%
    22:00 +24°C° 0 mm 6 mps 761 mmHg 31%
    23:00 +24°C° 0 mm 6 mps 761 mmHg 32%

    25 April, Thursday

    Time Temperature Precipitation Wind Pressure Humidity
    00:00 +24°C° 0 mm 6 mps 760 mmHg 33%
    01:00 +24°C° 0 mm 6 mps 760 mmHg 33%
    02:00 +23°C° 0 mm 6 mps 760 mmHg 33%
    03:00 +23°C° 0 mm 6 mps 760 mmHg 33%
    04:00 +23°C° 0 mm 6 mps 760 mmHg 31%
    05:00 +23°C° 0 mm 7 mps 760 mmHg 29%
    06:00 +23°C° 0 mm 7 mps 760 mmHg 26%
    07:00 +24°C° 0 mm 7 mps 761 mmHg 25%
    08:00 +26°C° 0 mm 8 mps 761 mmHg 24%
    09:00 +28°C° 0 mm 8 mps 761 mmHg 22%
    10:00 +29°C° 0 mm 8 mps 761 mmHg 21%
    11:00 +29°C° 0 mm 8 mps 761 mmHg 21%
    12:00 +31°C° 0 mm 8 mps 761 mmHg 20%
    13:00 +31°C° 0 mm 8 mps 760 mmHg 20%
    14:00 +31°C° 0 mm 8 mps 760 mmHg 20%
    15:00 +31°C° 0 mm 8 mps 759 mmHg 20%
    16:00 +29°C° 0 mm 7 mps 759 mmHg 22%
    17:00 +28°C° 0 mm 7 mps 759 mmHg 24%
    18:00 +28°C° 0 mm 7 mps 759 mmHg 26%
    19:00 +27°C° 0 mm 6 mps 759 mmHg 26%
    20:00 +27°C° 0 mm 5 mps 760 mmHg 27%
    21:00 +26°C° 0 mm 4 mps 760 mmHg 28%
    22:00 +26°C° 0 mm 4 mps 760 mmHg 27%
    23:00 +26°C° 0 mm 4 mps 759 mmHg 27%

    26 April, Friday

    Time Temperature Precipitation Wind Pressure Humidity
    00:00 +26°C° 0 mm 4 mps 759 mmHg 26%
    01:00 +25°C° 0 mm 4 mps 759 mmHg 26%
    02:00 +25°C° 0 mm 4 mps 758 mmHg 26%
    03:00 +25°C° 0 mm 5 mps 758 mmHg 25%
    04:00 +25°C° 0 mm 5 mps 758 mmHg 25%
    05:00 +25°C° 0 mm 5 mps 759 mmHg 25%
    06:00 +25°C° 0 mm 5 mps 759 mmHg 25%
    07:00 +26°C° 0 mm 5 mps 759 mmHg 22%
    08:00 +28°C° 0 mm 5 mps 760 mmHg 20%
    09:00 +30°C° 0 mm 6 mps 760 mmHg 18%
    10:00 +32°C° 0 mm 6 mps 760 mmHg 17%
    11:00 +32°C° 0 mm 6 mps 760 mmHg 16%
    12:00 +33°C° 0 mm 6 mps 759 mmHg 15%
    13:00 +33°C° 0 mm 7 mps 759 mmHg 16%
    14:00 +33°C° 0 mm 7 mps 758 mmHg 16%
    15:00 +33°C° 0 mm 7 mps 758 mmHg 17%
    16:00 +32°C° 0 mm 6 mps 758 mmHg 20%
    17:00 +30°C° 0 mm 6 mps 758 mmHg 23%
    18:00 +29°C° 0 mm 5 mps 758 mmHg 26%
    19:00 +28°C° 0 mm 4 mps 759 mmHg 27%
    20:00 +28°C° 0 mm 4 mps 759 mmHg 28%
    21:00 +27°C° 0 mm 3 mps 760 mmHg 30%
    22:00 +27°C° 0 mm 3 mps 759 mmHg 29%
    23:00 +27°C° 0 mm 3 mps 759 mmHg 28%

    27 April, Saturday

    Time Temperature Precipitation Wind Pressure Humidity
    00:00 +27°C° 0 mm 3 mps 759 mmHg 27%
    01:00 +26°C° 0 mm 3 mps 758 mmHg 26%
    02:00 +26°C° 0 mm 3 mps 758 mmHg 25%
    03:00 +26°C° 0 mm 2 mps 758 mmHg 25%
    04:00 +26°C° 0 mm 3 mps 758 mmHg 25%
    05:00 +26°C° 0 mm 3 mps 758 mmHg 25%
    06:00 +26°C° 0 mm 3 mps 759 mmHg 25%
    07:00 +28°C° 0 mm 3 mps 759 mmHg 23%
    08:00 +29°C° 0 mm 3 mps 760 mmHg 21%
    09:00 +31°C° 0 mm 3 mps 760 mmHg 20%
    10:00 +31°C° 0 mm 3 mps 760 mmHg 19%
    11:00 +33°C° 0 mm 3 mps 760 mmHg 18%
    12:00 +34°C° 0 mm 3 mps 759 mmHg 17%
    13:00 +34°C° 0 mm 3 mps 759 mmHg 17%
    14:00 +34°C° 0 mm 3 mps 759 mmHg 16%
    15:00 +34°C° 0 mm 3 mps 758 mmHg 16%
    16:00 +34°C° 0 mm 4 mps 758 mmHg 17%
    17:00 +33°C° 0 mm 4 mps 758 mmHg 19%
    18:00 +32°C° 0 mm 5 mps 758 mmHg 20%
    19:00 +32°C° 0 mm 4 mps 758 mmHg 21%
    20:00 +31°C° 0 mm 3 mps 759 mmHg 22%
    21:00 +30°C° 0 mm 2 mps 759 mmHg 23%
    22:00 +30°C° 0 mm 2 mps 758 mmHg 24%
    23:00 +29°C° 0 mm 2 mps 758 mmHg 25%
    Show more